Temp_Advection
nan nan nan nan nan nan nan nan nan nan nan nan nan nan nan nan nan nan nan nan nan nan nan nan nan nan nan nan nan nan nan nan nan nan nan nan nan nan nan nan nan nan nan nan nan nan nan nan nan nan nan nan nan nan
nan 0 0 0 -0 -0 -0 0 -0 -0 -0 -0 -0 -0 -0 -0 1 0 0 -0 1 -0 -0 -0 -1 -2 -1 -2 -3 -2 -0 -1 -2 -1 0 0 -0 0 0 0 0 -0 -0 -0 -1 -1 -1 -1 -1 -1 -1 -0 -0 nan
nan -0 -0 0 0 -0 -0 -0 -0 -0 -0 -0 -0 -0 -0 -0 1 0 -0 0 -0 -1 -1 -3 -4 -1 -0 -1 -1 -1 -1 -1 -0 -2 -2 -0 -0 -0 0 -0 0 -0 -0 -0 0 -0 -1 -1 -1 -0 -0 0 0 nan
nan 0 0 0 -0 -0 -0 -0 -0 0 -0 -0 -0 0 -0 -0 0 0 0 -0 -1 -1 -0 -1 -1 -2 -2 -1 -0 -1 -2 -0 -0 -0 -1 -0 0 -0 -0 -0 0 -0 0 -0 -0 -1 -1 -1 -1 -0 0 0 0 nan
nan 1 0 -1 -1 -0 -0 -0 0 0 0 0 0 -0 -0 2 0 0 0 -0 -1 -1 0 -1 -2 -1 -0 -0 0 -1 0 0 -0 -1 -0 -0 -0 -0 -0 0 -0 -1 -1 -1 -1 -3 -2 -1 -1 -0 0 0 0 nan
nan 0 -1 -1 -1 -0 -0 -0 1 1 0 0 -1 0 1 1 -0 0 -0 -1 -1 2 -0 -0 -0 1 1 1 1 1 1 1 0 -0 -0 -0 -0 -0 -0 -0 -2 -4 -4 -3 -1 -1 -0 -0 0 0 0 -0 0 nan
nan -1 -1 -1 -1 -0 -0 0 1 0 -0 -1 1 1 1 -1 -0 -0 -1 -1 -0 2 -0 -0 0 1 2 2 1 1 2 1 0 0 0 0 0 0 -0 -1 -1 -1 -0 0 -1 0 0 -0 -0 0 0 -0 0 nan
nan -0 -1 -1 1 -0 -0 -0 -0 -0 -0 1 2 1 -0 -0 0 -1 -0 -0 0 -1 -0 -0 -0 1 2 1 0 0 0 0 0 0 0 0 0 0 -0 -2 -3 -0 1 1 -0 -0 -1 -0 0 0 -0 0 0 nan
nan 0 0 1 0 1 0 1 -0 -0 1 1 -0 -0 0 0 0 -0 1 1 -0 -2 -0 -0 -0 0 1 1 1 0 -0 -0 0 0 0 0 0 -1 -2 -3 -0 0 0 -0 0 1 0 0 0 -0 0 0 0 nan
nan 0 1 1 0 0 -0 1 1 0 0 -1 1 0 0 0 0 0 1 -1 -1 -1 -0 -0 -0 -0 0 -0 0 0 -0 0 0 -0 0 0 -1 -5 -3 -0 -0 0 0 0 0 -0 -1 -1 -0 0 0 0 0 nan
nan 0 1 1 1 1 1 -0 1 0 0 -0 -1 -0 0 0 0 -0 -0 -0 -0 -0 -0 -0 -1 -1 -1 -1 -0 0 -0 0 0 0 0 0 -0 -2 -6 -1 -0 1 1 0 -0 -1 -1 -0 0 0 0 0 0 nan
nan 0 1 0 -0 0 1 0 -0 0 -0 -0 -1 -1 -1 0 -0 -0 -0 -0 -0 0 0 0 1 -1 1 -2 -1 0 -0 0 0 -0 0 0 -1 -4 1 0 0 0 0 0 -0 0 0 -0 -0 0 0 0 0 nan
nan -0 0 1 0 -0 -0 0 -0 -2 0 1 -1 -0 -0 -0 -0 -0 -0 -0 -0 -0 1 -1 0 1 0 -1 -1 0 0 0 -0 0 -0 -0 -2 -0 -0 -0 -0 0 0 0 -0 0 0 -0 0 0 0 0 1 nan
nan 0 -0 -0 -0 -0 -0 -1 0 1 -2 -1 0 -0 -0 -0 -0 -0 -0 -0 0 -1 1 -1 -1 0 0 -0 0 0 0 -0 -0 -0 -0 -1 -4 -1 -0 -0 0 -0 0 0 0 0 -0 -0 -0 0 0 1 1 nan
nan 0 0 0 -0 -0 0 -1 -1 1 0 -0 -0 -0 -0 -0 -0 -0 0 1 -0 -0 -2 -2 -0 -1 -0 0 -0 0 -0 -0 -0 0 -1 -2 -0 -0 -0 -0 0 0 0 0 0 -0 -0 -0 0 1 1 1 1 nan
nan -0 0 -0 0 -1 0 0 0 0 -0 0 0 -0 0 -0 -0 1 0 1 1 -0 2 -2 -1 0 -0 -0 -0 -0 0 0 0 -1 -2 -0 -0 -0 0 0 0 0 0 0 -0 -0 0 0 0 0 1 1 1 nan
nan 0 -0 -0 1 1 1 1 0 0 0 0 -0 0 -0 -0 -0 1 1 0 1 -1 -1 0 0 -0 -0 0 0 0 -0 -0 -1 -2 -0 0 0 -0 0 0 0 0 0 -0 -0 -0 0 0 0 0 0 1 1 nan
nan -0 0 0 0 1 0 0 0 0 0 -0 -0 0 -0 0 -0 1 0 1 -1 -1 -1 -0 -1 0 -0 -0 0 -1 -2 -1 -0 0 0 0 0 0 0 0 0 0 0 0 -0 0 -0 0 0 0 0 1 1 nan
nan -1 -0 -0 -0 -1 0 0 -0 -0 0 0 0 1 1 1 0 1 1 1 0 -1 -2 -1 -0 -0 -0 -0 -1 -2 -2 -1 -1 1 1 1 0 0 0 0 0 0 0 0 0 0 0 1 1 1 1 1 1 nan
nan 0 -0 -0 -0 -0 -0 -0 -0 0 -0 0 0 -0 0 0 1 0 1 1 0 -0 -1 -0 -0 -0 -1 -1 -2 -2 -1 -1 -2 -2 -0 0 0 0 0 0 0 0 0 1 1 1 1 1 1 1 1 1 1 nan
nan 1 -0 0 -0 -0 -0 0 0 0 -0 -0 1 0 0 1 1 1 0 1 -1 -0 0 -0 -0 -0 -0 0 0 1 0 1 1 -1 -1 -1 0 0 0 0 0 0 0 0 0 1 1 1 1 1 1 0 0 nan
nan -0 -0 0 -0 -0 0 0 1 0 -0 0 0 -0 -0 0 0 0 0 -0 -0 0 0 0 0 0 0 0 1 1 0 0 0 0 0 -0 -0 0 0 -0 0 0 0 0 0 0 0 0 1 1 0 0 0 nan
nan 0 0 -0 0 0 0 0 0 -0 -0 0 0 -0 -0 0 0 -0 -0 0 0 0 -0 -0 0 0 0 0 0 1 1 0 0 0 0 0 -0 -0 0 0 0 0 0 0 0 0 0 0 0 0 0 0 0 nan
nan -0 -0 -0 -0 0 0 -0 0 0 0 -0 -0 0 0 0 0 -0 0 -0 0 0 0 -0 -0 -0 -0 0 0 0 0 0 0 0 0 0 0 0 0 0 0 0 0 0 0 0 0 0 0 0 0 0 0 nan
nan -0 0 0 0 -0 0 0 0 -0 -0 0 0 -0 0 -0 -0 0 0 -0 -0 -0 0 0 -0 -0 -0 -0 -0 0 0 0 0 0 0 0 0 -0 -0 -0 0 0 0 0 0 0 0 0 0 0 0 0 0 nan
nan -0 -0 -0 0 0 -0 -0 -0 0 -0 0 0 0 -0 -0 0 0 -0 -1 -0 -0 -0 -0 -0 0 0 -0 -0 0 0 0 0 0 0 0 0 0 0 -0 -0 -0 -0 0 0 0 0 0 0 0 0 0 0 nan
nan -0 0 0 0 -0 -0 0 -0 -0 -0 -0 0 0 0 0 0 -0 0 0 -0 -0 0 0 0 0 0 1 0 0 0 0 0 0 0 0 0 0 0 0 0 0 0 0 0 0 0 0 0 0 0 0 0 nan
nan 0 -0 -0 0 -1 -0 -0 -0 0 0 0 -0 0 0 -0 -0 0 0 0 0 0 0 1 1 1 1 1 0 0 1 0 0 0 0 0 0 0 0 0 0 0 0 0 0 0 0 0 0 0 0 0 0 nan
nan -0 -0 -1 -0 -1 -0 0 0 0 0 -1 -1 -0 -0 1 0 0 0 1 1 0 0 0 1 0 0 0 0 0 0 0 0 0 0 0 -0 0 1 0 0 0 0 0 0 0 0 0 0 0 0 0 0 nan
nan 0 -1 -0 0 0 0 1 1 0 0 0 0 -0 -0 -0 1 1 0 0 0 0 0 0 0 0 0 0 0 0 0 0 0 0 -0 -0 -0 0 0 0 0 0 0 0 0 0 0 0 0 0 0 0 0 nan
nan -0 -0 -1 0 0 1 1 1 0 0 0 0 -0 -0 0 0 0 0 0 0 0 0 0 0 0 0 0 0 0 0 0 0 0 0 -0 -0 0 0 0 0 0 0 0 0 0 0 0 0 0 0 0 0 nan
nan -1 -0 0 0 1 0 -0 -0 -0 -0 -0 -0 0 0 0 -0 -0 -0 -0 -0 -0 0 0 0 -0 -0 -0 -0 -0 -0 -0 -0 -0 -0 -0 -0 -0 -0 0 1 1 1 0 0 0 1 1 0 0 0 0 0 nan
nan nan nan nan nan nan nan nan nan nan nan nan nan nan nan nan nan nan nan nan nan nan nan nan nan nan nan nan nan nan nan nan nan nan nan nan nan nan nan nan nan nan nan nan nan nan nan nan nan nan nan nan nan nan
Wind_Speed
32 31 31 31 32 32 33 35 40 43 43 47 49 51 51 52 52 53 48 43 38 19 21 14 19 29 26 34 12 16 8 2 4 4 4 4 3 5 4 5 7 6 6 4 3 1 8 11 8 9 6 8 9 11
32 32 33 35 36 37 39 41 43 45 45 46 50 52 52 53 53 53 44 46 37 22 10 14 23 26 43 43 40 28 11 13 9 5 1 4 3 2 6 4 3 5 7 6 9 7 6 19 8 16 8 11 10 10
36 37 38 39 40 43 45 48 48 50 49 48 50 53 56 57 56 57 40 35 31 32 29 31 25 27 25 48 49 17 16 20 9 9 10 3 3 4 5 5 4 5 9 4 3 7 20 14 29 12 14 12 12 11
38 39 40 45 49 50 52 54 56 55 55 52 52 56 58 56 55 58 43 35 33 13 6 11 17 35 33 39 49 40 32 21 21 16 5 3 3 9 4 3 5 5 15 7 5 10 10 16 27 24 18 15 15 14
40 45 51 48 49 53 61 63 61 61 59 58 55 57 59 57 56 55 38 32 36 21 9 16 15 26 31 40 38 31 30 32 23 7 3 3 5 4 1 2 4 12 7 6 8 17 19 9 30 32 25 22 20 19
47 46 45 46 48 51 57 66 69 65 63 61 57 58 59 55 56 49 19 37 32 42 6 3 7 20 41 35 37 29 33 29 16 7 5 6 6 6 4 4 9 28 31 33 12 9 16 15 7 28 32 26 23 23
37 35 38 42 48 57 61 64 71 69 64 61 58 60 58 60 61 56 19 18 43 36 9 5 3 16 29 26 18 23 28 19 8 7 7 7 6 8 3 5 6 19 30 36 32 20 14 14 13 16 29 30 26 25
20 24 25 35 54 59 64 67 72 71 64 60 60 58 57 56 53 52 22 17 20 44 7 3 3 11 27 21 11 14 8 7 5 5 6 5 7 3 5 9 19 23 19 27 34 33 24 16 15 16 16 22 28 29
10 11 17 43 57 67 63 75 74 67 63 62 58 55 53 54 36 40 39 16 32 27 8 6 7 5 21 16 15 7 5 3 3 2 3 7 3 6 9 21 23 19 17 20 25 32 32 23 21 21 20 23 23 28
9 18 31 47 60 60 72 72 72 69 66 63 62 49 16 32 25 31 29 8 25 18 14 4 12 5 29 15 4 7 3 3 3 4 8 3 4 24 25 22 18 15 20 20 15 24 29 33 28 28 28 25 22 20
28 40 48 58 65 72 71 73 70 71 69 57 19 8 15 37 28 20 11 9 11 6 11 10 24 17 29 9 4 4 3 2 3 4 5 3 4 8 32 42 42 33 19 22 28 20 23 28 32 31 30 28 22 19
36 39 54 62 65 68 65 71 74 70 45 27 24 26 32 15 10 6 5 5 7 7 7 15 25 34 19 21 7 3 4 2 5 8 3 4 5 19 11 14 19 28 34 29 20 30 27 21 20 31 31 29 25 21
41 44 52 60 67 69 71 72 64 47 44 44 21 6 10 7 5 8 8 4 6 6 26 38 15 15 10 7 7 3 4 4 13 2 4 5 8 9 11 10 11 14 20 29 27 22 21 24 21 21 30 28 26 24
50 56 61 60 60 65 68 56 49 48 42 10 10 8 6 7 7 5 3 5 10 34 44 43 22 8 6 4 4 5 2 5 2 2 7 4 19 17 14 7 10 13 15 25 29 23 21 20 25 24 24 27 28 26
43 47 50 55 60 64 62 56 52 46 10 2 6 8 7 3 1 10 21 26 41 50 48 24 12 10 2 4 1 4 4 5 6 6 4 9 14 21 17 12 11 11 13 19 29 28 20 20 20 21 23 25 25 24
48 49 50 57 58 57 54 48 32 29 1 2 3 3 4 4 2 11 31 39 46 43 33 16 4 5 3 5 5 8 9 7 5 4 11 16 20 18 20 16 12 11 11 13 24 27 22 20 17 16 17 21 19 18
45 32 52 51 56 59 49 31 21 3 3 2 1 2 7 7 7 20 41 44 48 38 6 4 5 6 4 3 4 5 6 4 7 15 20 19 21 20 19 16 13 11 14 15 21 30 24 20 18 15 16 20 18 17
29 48 51 49 52 44 33 5 1 2 1 2 2 3 4 12 24 31 34 44 46 17 16 5 10 5 6 8 3 4 14 6 16 21 24 21 19 18 17 16 16 13 13 15 17 26 26 23 21 18 17 20 22 21
44 56 55 51 49 30 12 7 6 4 5 4 5 12 17 22 19 34 39 35 21 12 18 5 4 4 4 6 7 14 22 23 29 24 23 20 16 18 17 15 14 14 15 18 21 24 24 21 18 18 20 21 22 21
51 53 52 49 42 8 5 4 3 6 2 3 9 14 10 11 29 35 33 23 18 8 4 2 2 4 6 7 14 29 33 30 33 29 24 20 18 19 17 16 15 14 16 18 19 20 22 21 20 19 18 19 21 21
53 46 51 34 22 3 2 2 5 5 6 6 9 13 9 19 23 25 11 16 5 3 1 2 2 2 4 8 13 26 30 30 30 26 30 26 22 18 18 17 15 14 16 19 20 20 19 17 18 19 18 18 16 15
49 47 26 23 3 3 4 7 7 7 6 5 8 7 8 4 4 4 8 5 3 2 2 5 8 10 12 18 26 25 26 23 19 13 20 22 24 22 20 17 16 15 16 16 17 18 17 17 17 18 18 17 18 16
40 23 7 7 3 1 2 6 4 4 4 3 4 3 2 3 2 8 5 3 3 6 11 12 11 12 15 19 20 21 20 17 15 17 18 18 16 14 15 15 13 13 16 16 15 13 13 16 16 16 18 20 19 18
28 6 3 4 5 3 3 4 3 5 6 4 3 3 2 3 4 5 3 1 7 14 17 14 14 16 16 17 19 19 18 16 15 16 15 16 17 16 14 12 12 12 11 11 13 14 13 13 13 15 19 20 20 20
6 4 6 3 2 4 4 2 1 4 4 2 4 2 0 3 3 2 3 3 15 18 19 17 14 12 15 14 14 16 16 13 13 14 14 14 13 14 15 14 13 13 14 16 16 15 15 16 16 15 17 20 21 21
7 7 3 1 1 3 1 3 2 4 4 4 3 5 2 2 3 3 3 11 22 22 24 25 22 18 16 16 18 18 15 13 13 12 12 11 12 12 12 12 14 15 15 16 16 16 16 16 18 19 20 20 21 21
4 3 3 3 5 9 6 8 6 4 4 3 3 3 3 3 3 3 5 10 17 24 28 25 24 23 21 18 14 12 12 12 10 8 9 9 9 10 11 10 7 6 10 13 16 17 17 17 18 20 20 21 23 24
4 5 3 6 9 8 5 3 3 2 3 6 7 3 7 7 4 3 4 8 12 13 19 25 26 23 20 16 14 15 16 15 13 12 12 13 13 13 13 12 10 10 11 12 12 12 14 16 18 19 20 21 22 23
6 7 6 7 7 8 5 3 2 3 3 6 4 3 3 4 6 8 11 13 13 10 12 17 20 19 17 17 16 16 14 14 14 14 14 15 15 16 16 15 16 16 17 17 16 14 14 15 16 18 19 20 21 22
8 10 5 4 4 4 6 7 6 9 10 7 5 6 7 10 13 13 12 10 10 11 11 10 11 13 13 13 13 14 14 13 12 11 12 14 13 11 11 12 13 14 17 20 21 21 20 20 22 24 24 23 23 23
5 6 6 6 3 5 8 10 13 13 10 9 12 13 8 6 7 9 10 10 10 9 7 6 5 5 5 5 6 6 6 6 7 8 10 12 12 13 14 15 16 17 17 18 21 23 24 25 26 27 27 27 27 27
9 7 3 4 3 11 9 7 6 6 7 8 8 8 5 5 5 6 6 6 7 7 7 5 4 3 1 2 3 4 5 7 8 9 11 13 14 15 16 18 21 22 22 21 22 24 26 26 27 28 28 29 28 27
8 12 12 6 7 7 12 7 8 4 5 4 3 3 3 3 3 6 9 9 9 10 12 13 12 12 12 13 14 15 16 17 18 19 19 19 19 19 21 22 23 24 24 23 23 24 25 26 27 28 27 27 26 26
Wind_Direction
262 256 250 241 238 234 227 219 214 211 210 206 205 204 202 203 203 203 205 209 211 224 247 232 223 197 176 173 168 166 132 222 62 80 122 184 137 208 135 177 174 155 150 176 116 127 273 180 144 170 214 165 168 189
260 255 248 245 239 233 227 223 215 211 209 206 203 201 200 201 202 202 207 211 206 210 245 236 240 218 203 184 181 171 154 158 157 95 68 114 119 139 160 208 160 194 187 180 185 210 233 190 213 204 184 172 173 187
259 257 256 244 239 235 227 220 217 212 208 207 201 200 199 200 200 200 201 209 202 218 256 262 253 209 209 204 195 168 174 175 154 147 153 154 151 139 161 229 160 227 178 195 107 237 232 234 219 214 205 194 186 183
264 261 254 253 246 236 225 219 215 212 208 205 200 198 197 198 198 197 196 204 196 185 221 270 257 231 207 203 201 203 187 166 167 157 118 140 165 197 192 163 179 191 158 170 268 270 269 246 224 217 205 199 196 191
266 267 268 250 235 227 220 213 210 208 204 202 199 195 194 196 193 192 195 203 200 190 186 240 257 197 190 195 196 213 201 185 163 133 100 198 161 140 139 120 225 189 172 171 215 215 204 223 213 212 211 201 201 199
280 269 255 240 227 217 206 209 203 203 201 197 195 193 192 190 185 179 190 204 206 206 313 279 197 177 178 182 185 189 187 179 170 141 167 195 178 175 166 216 240 209 214 213 208 212 216 225 236 212 210 209 205 209
274 260 246 239 220 208 203 203 197 195 193 191 190 188 185 186 185 184 193 208 211 198 205 263 187 156 174 169 159 188 177 167 161 154 190 158 174 188 170 222 231 220 225 225 223 214 207 210 218 215 217 218 223 219
274 269 250 220 197 190 191 191 187 186 186 186 184 180 179 184 190 196 185 173 188 202 202 240 231 123 153 150 149 160 137 127 142 162 151 144 149 189 250 236 233 238 235 234 224 221 227 228 215 205 205 215 221 217
283 186 171 167 166 179 175 178 177 178 180 176 172 172 173 182 193 199 192 202 182 174 196 222 171 141 158 143 138 136 127 85 162 134 197 151 187 219 226 227 234 229 218 229 226 224 222 222 218 205 207 212 218 219
176 156 162 158 161 165 160 167 172 171 163 162 163 161 184 184 181 185 201 242 193 190 216 199 157 145 155 148 105 114 122 146 155 231 154 177 249 242 241 248 254 244 230 215 202 209 217 221 215 209 208 211 214 220
125 141 141 144 148 152 157 158 158 155 156 154 156 132 125 167 172 180 213 193 195 179 195 149 150 134 158 128 136 137 153 140 160 234 156 240 262 241 242 243 243 240 234 227 226 224 218 219 218 217 213 212 214 216
145 143 141 142 146 149 151 155 154 152 157 150 139 113 122 160 203 180 203 181 197 172 152 140 138 135 127 141 104 147 115 130 210 141 122 252 244 228 213 217 236 240 233 226 221 219 219 218 219 219 218 215 214 215
142 145 145 146 148 151 153 153 153 150 139 137 123 132 154 175 205 200 173 189 144 161 143 138 130 121 113 93 83 116 125 191 124 99 226 231 239 215 193 200 224 220 214 215 217 216 210 215 214 213 217 216 216 213
152 146 149 149 149 149 152 148 147 145 146 140 177 137 202 188 211 201 173 140 143 142 140 135 118 121 121 95 140 112 158 124 145 200 233 240 225 191 179 179 178 184 195 199 202 201 206 209 208 211 211 217 214 212
145 148 148 150 151 155 156 159 157 167 175 148 128 177 200 207 232 162 128 119 136 139 134 123 78 110 93 100 150 117 148 211 206 224 226 221 179 182 183 172 172 183 196 200 200 205 206 202 201 204 207 209 214 212
148 148 150 154 153 157 157 157 160 169 296 25 292 62 53 74 330 127 127 128 140 134 132 108 113 103 158 145 155 205 156 206 228 210 201 163 163 163 173 180 188 194 194 196 195 193 192 184 189 193 200 205 212 215
149 148 156 160 159 155 156 158 171 203 91 163 257 138 175 127 139 133 139 139 146 142 135 133 122 166 110 129 200 188 207 214 201 176 158 156 158 160 169 179 181 179 180 183 189 192 193 194 193 198 200 200 199 201
149 153 155 157 159 165 167 137 140 94 125 57 118 116 177 145 143 138 145 151 152 144 140 152 125 153 173 170 215 223 212 172 154 153 154 152 153 163 175 177 174 169 172 181 184 186 191 194 200 203 201 199 194 194
156 153 153 158 158 143 169 204 214 174 93 102 82 96 114 128 147 141 142 153 151 126 118 107 136 172 197 207 193 169 168 159 155 156 161 158 160 171 177 177 175 175 176 178 181 189 194 199 202 200 198 198 198 199
154 157 159 157 162 146 147 190 161 89 90 88 103 106 104 118 137 138 149 150 140 130 77 92 227 231 206 214 184 178 165 158 156 153 156 158 161 171 177 176 169 166 166 170 177 183 188 190 194 197 200 202 200 203
154 154 163 160 152 91 133 173 83 88 91 76 97 91 94 124 126 140 134 134 98 68 154 215 243 234 184 160 172 167 160 162 165 164 162 161 165 173 173 173 175 174 178 176 178 182 192 198 194 195 197 201 202 201
151 145 148 158 120 105 93 49 96 104 76 81 50 74 95 86 77 74 100 91 74 103 111 124 123 111 114 132 144 152 153 161 166 165 168 166 169 174 178 180 180 182 182 183 183 186 186 195 202 203 207 203 199 205
155 167 137 84 134 100 70 28 82 73 95 104 69 74 43 82 109 126 72 84 113 132 139 134 124 120 124 130 145 147 155 161 154 160 163 173 182 182 184 184 188 192 185 182 182 179 182 194 208 217 212 205 207 210
135 112 68 31 52 93 83 35 86 102 100 86 94 99 67 115 118 59 81 296 152 158 159 152 143 139 136 142 144 145 151 155 155 157 164 172 180 182 182 182 184 187 190 189 188 186 188 202 213 211 209 212 216 218
110 78 158 151 123 108 107 103 86 69 87 84 82 58 76 86 75 93 171 225 183 179 171 166 179 178 162 159 162 162 162 166 176 175 171 171 178 180 184 184 183 187 192 193 197 202 205 211 221 224 220 220 225 227
64 15 44 111 85 102 114 77 73 106 102 90 96 131 124 103 101 210 211 186 185 194 194 192 195 193 197 202 191 192 190 184 187 193 186 185 194 204 197 193 195 201 204 206 207 209 218 226 231 233 234 235 238 239
57 320 10 51 106 105 84 65 70 72 83 120 154 97 88 106 233 250 158 175 195 207 210 212 214 215 213 208 203 195 196 201 202 198 199 196 198 204 206 198 194 217 226 226 223 219 222 232 239 242 244 244 245 247
50 17 54 350 59 56 104 81 86 118 159 145 126 131 145 173 201 103 137 169 174 186 198 206 214 220 225 223 215 205 204 204 206 211 211 210 206 203 204 208 214 216 212 211 216 219 227 235 241 247 251 253 254 253
41 11 55 23 39 47 42 83 137 80 87 153 112 159 180 96 84 116 126 136 139 140 167 184 194 200 202 202 200 203 210 216 220 224 226 229 231 232 235 237 236 234 225 222 224 228 230 237 244 248 251 254 256 256
22 20 83 48 67 51 26 35 66 89 89 79 95 104 92 92 83 95 104 114 125 127 134 149 170 182 187 192 198 205 211 215 220 235 248 253 260 268 265 263 261 254 247 243 239 239 240 243 248 249 249 253 258 261
29 45 60 56 60 32 30 65 71 78 85 73 68 76 82 91 83 81 87 91 95 101 117 135 150 161 182 196 204 208 216 231 241 249 258 265 269 269 267 261 256 255 254 251 250 251 251 252 254 254 253 255 261 264
30 33 74 59 23 35 56 44 44 47 38 39 42 58 62 52 51 40 52 61 61 60 66 69 74 62 9 303 291 284 271 264 264 265 269 273 272 268 265 266 268 267 263 258 253 251 250 250 252 254 257 259 261 261
23 31 44 59 29 23 9 21 36 42 51 59 70 88 96 95 73 62 50 31 5 348 334 322 311 297 287 281 279 280 282 284 284 282 280 277 276 277 276 274 272 269 264 259 254 254 256 256 257 259 260 261 260 261
Height
1311 1314 1317 1322 1327 1333 1339 1345 1351 1359 1368 1377 1387 1398 1409 1420 1431 1440 1449 1457 1463 1465 1464 1463 1467 1468 1472 1479 1487 1494 1504 1504 1508 1522 1531 1540 1544 1543 1547 1544 1548 1556 1568 1579 1581 1586 1567 1526 1534 1540 1529 1524 1526 1528
1298 1301 1306 1310 1316 1322 1330 1336 1343 1351 1360 1369 1380 1391 1403 1415 1425 1437 1444 1451 1460 1464 1459 1460 1459 1460 1469 1469 1480 1486 1487 1490 1497 1513 1524 1528 1537 1543 1539 1548 1539 1547 1541 1548 1547 1541 1523 1522 1521 1522 1522 1524 1526 1528
1284 1287 1291 1297 1303 1310 1318 1326 1333 1343 1352 1363 1373 1385 1395 1406 1418 1430 1441 1447 1457 1464 1461 1460 1451 1456 1462 1470 1476 1479 1485 1487 1491 1495 1505 1514 1519 1526 1536 1535 1532 1531 1529 1532 1531 1516 1517 1519 1521 1521 1522 1524 1526 1528
1267 1269 1273 1278 1284 1291 1301 1311 1321 1332 1343 1355 1366 1377 1390 1405 1418 1428 1436 1443 1454 1462 1464 1452 1451 1450 1457 1466 1472 1478 1477 1484 1490 1494 1499 1508 1512 1511 1519 1514 1521 1519 1520 1523 1523 1514 1515 1512 1514 1517 1520 1523 1526 1529
1248 1248 1248 1251 1258 1268 1279 1293 1306 1319 1333 1346 1359 1373 1387 1401 1418 1432 1440 1444 1451 1457 1452 1452 1451 1451 1455 1460 1467 1476 1479 1486 1488 1493 1497 1505 1504 1508 1510 1513 1513 1504 1507 1515 1510 1500 1502 1502 1506 1512 1516 1519 1523 1527
1225 1220 1221 1227 1236 1247 1259 1274 1292 1307 1323 1340 1355 1369 1386 1402 1417 1426 1438 1443 1446 1454 1454 1448 1444 1444 1451 1460 1468 1473 1475 1482 1485 1487 1494 1496 1497 1500 1508 1509 1488 1488 1490 1490 1492 1497 1498 1500 1502 1506 1511 1516 1520 1523
1202 1197 1198 1203 1213 1228 1245 1260 1279 1298 1318 1336 1353 1368 1384 1396 1403 1409 1417 1423 1439 1453 1456 1457 1440 1440 1447 1455 1463 1475 1479 1479 1482 1488 1491 1491 1494 1497 1501 1499 1481 1481 1483 1485 1490 1494 1496 1498 1500 1502 1506 1511 1517 1520
1188 1181 1174 1173 1187 1211 1231 1251 1273 1295 1318 1335 1352 1369 1385 1400 1411 1413 1418 1427 1434 1449 1451 1447 1435 1438 1447 1456 1467 1472 1474 1476 1483 1486 1487 1489 1494 1495 1493 1474 1474 1476 1478 1479 1483 1487 1490 1495 1498 1500 1503 1507 1511 1515
1181 1176 1171 1166 1184 1207 1229 1249 1273 1297 1317 1337 1357 1376 1391 1396 1396 1402 1425 1426 1429 1440 1441 1435 1427 1436 1444 1452 1461 1469 1474 1482 1485 1483 1485 1488 1490 1486 1467 1465 1465 1468 1471 1473 1477 1482 1487 1490 1493 1497 1500 1503 1506 1510
1186 1182 1181 1188 1200 1217 1232 1255 1278 1297 1319 1339 1358 1373 1377 1381 1393 1411 1424 1423 1420 1418 1427 1416 1413 1421 1434 1448 1459 1468 1473 1481 1485 1482 1481 1483 1475 1462 1460 1459 1460 1464 1467 1471 1472 1476 1479 1483 1487 1490 1494 1498 1501 1505
1199 1195 1199 1205 1215 1229 1247 1263 1281 1301 1320 1334 1344 1357 1367 1381 1404 1412 1407 1401 1399 1401 1401 1399 1404 1402 1431 1438 1455 1461 1470 1476 1483 1477 1479 1477 1468 1448 1451 1450 1452 1457 1461 1463 1467 1471 1473 1476 1480 1486 1490 1494 1498 1501
1210 1214 1217 1225 1233 1245 1259 1274 1288 1300 1314 1324 1339 1354 1368 1384 1388 1389 1385 1382 1380 1379 1381 1390 1403 1411 1426 1437 1446 1458 1465 1474 1471 1470 1477 1471 1445 1436 1436 1438 1441 1445 1451 1457 1460 1464 1468 1471 1475 1480 1485 1490 1494 1498
1222 1226 1232 1239 1247 1258 1271 1285 1298 1309 1324 1337 1347 1356 1368 1371 1371 1362 1357 1361 1362 1365 1373 1383 1403 1414 1426 1436 1447 1451 1458 1468 1465 1474 1467 1445 1428 1429 1431 1435 1438 1440 1443 1449 1455 1459 1463 1468 1471 1475 1480 1485 1489 1493
1232 1238 1245 1253 1263 1273 1286 1295 1308 1318 1330 1341 1343 1354 1357 1354 1347 1339 1338 1338 1343 1355 1367 1379 1397 1414 1428 1435 1443 1450 1459 1461 1469 1474 1449 1425 1419 1425 1430 1432 1434 1437 1439 1443 1449 1455 1459 1463 1466 1471 1476 1481 1484 1488
1243 1250 1258 1268 1277 1286 1296 1305 1316 1322 1320 1319 1324 1331 1333 1329 1332 1333 1334 1340 1350 1355 1363 1387 1401 1411 1427 1436 1440 1450 1457 1457 1448 1438 1425 1412 1416 1420 1425 1429 1433 1435 1437 1440 1445 1451 1456 1460 1464 1468 1472 1477 1482 1485
1250 1261 1270 1278 1288 1296 1306 1315 1320 1324 1324 1320 1319 1317 1321 1327 1330 1330 1334 1340 1350 1361 1375 1382 1403 1416 1422 1427 1432 1433 1433 1435 1420 1411 1406 1409 1413 1417 1422 1428 1431 1434 1436 1438 1442 1449 1454 1459 1463 1468 1472 1475 1479 1483
1256 1260 1273 1284 1295 1306 1314 1319 1324 1324 1323 1326 1325 1323 1325 1327 1327 1325 1327 1338 1353 1361 1377 1386 1393 1402 1413 1420 1424 1421 1418 1402 1395 1399 1404 1408 1411 1415 1422 1427 1430 1431 1434 1437 1442 1447 1454 1459 1463 1467 1471 1474 1478 1482
1261 1271 1281 1291 1300 1313 1316 1319 1322 1326 1328 1327 1326 1327 1328 1330 1334 1337 1344 1350 1352 1359 1366 1375 1383 1398 1404 1403 1409 1396 1392 1392 1395 1399 1405 1409 1413 1418 1424 1427 1428 1431 1434 1438 1441 1446 1451 1456 1460 1464 1468 1472 1476 1480
1262 1274 1287 1296 1304 1315 1324 1326 1324 1325 1327 1328 1327 1328 1332 1337 1342 1341 1343 1354 1359 1362 1366 1374 1381 1386 1386 1381 1378 1380 1384 1386 1391 1400 1407 1411 1414 1419 1425 1427 1428 1431 1434 1437 1441 1445 1450 1455 1459 1462 1466 1469 1474 1478
1275 1283 1292 1303 1310 1313 1317 1320 1319 1318 1327 1330 1331 1333 1337 1339 1345 1344 1353 1358 1362 1366 1369 1373 1374 1372 1370 1370 1372 1375 1379 1386 1392 1400 1406 1410 1415 1420 1424 1426 1429 1432 1434 1437 1442 1446 1450 1453 1457 1461 1464 1467 1470 1474
1284 1294 1301 1307 1312 1314 1317 1318 1317 1321 1327 1331 1333 1336 1341 1345 1347 1355 1357 1357 1363 1369 1372 1372 1372 1371 1370 1369 1372 1378 1382 1389 1394 1397 1401 1408 1415 1421 1424 1426 1429 1432 1435 1437 1441 1445 1450 1454 1456 1459 1463 1466 1469 1472
1286 1298 1306 1306 1309 1314 1315 1316 1319 1324 1330 1334 1335 1340 1348 1354 1356 1358 1359 1363 1368 1371 1371 1372 1374 1374 1373 1373 1377 1382 1388 1395 1399 1403 1407 1410 1415 1420 1423 1425 1427 1430 1434 1437 1440 1443 1447 1453 1457 1459 1462 1465 1467 1470
1292 1297 1300 1305 1314 1316 1322 1318 1321 1326 1334 1343 1347 1353 1357 1357 1359 1360 1364 1368 1370 1371 1372 1375 1377 1378 1380 1382 1386 1389 1394 1398 1401 1405 1408 1413 1418 1422 1423 1424 1427 1429 1433 1436 1440 1443 1446 1450 1454 1457 1460 1463 1465 1467
1299 1302 1305 1306 1308 1316 1319 1321 1322 1327 1333 1342 1350 1355 1357 1359 1359 1361 1368 1369 1370 1373 1375 1378 1379 1381 1385 1389 1390 1392 1397 1400 1404 1408 1411 1413 1417 1420 1422 1423 1425 1429 1433 1437 1439 1442 1444 1448 1452 1454 1457 1460 1463 1465
1298 1313 1316 1316 1315 1318 1324 1328 1327 1326 1340 1345 1351 1357 1358 1358 1366 1370 1371 1370 1370 1372 1375 1377 1382 1386 1388 1391 1394 1397 1399 1403 1408 1410 1411 1413 1416 1418 1420 1421 1423 1427 1430 1433 1436 1439 1442 1445 1449 1452 1454 1456 1459 1461
1298 1306 1309 1311 1312 1314 1319 1323 1327 1333 1339 1348 1355 1357 1359 1363 1367 1368 1365 1363 1365 1369 1372 1377 1382 1386 1390 1394 1397 1399 1401 1405 1408 1409 1410 1412 1414 1417 1418 1419 1421 1425 1428 1430 1432 1435 1439 1442 1446 1449 1451 1453 1455 1457
1314 1314 1312 1312 1309 1309 1319 1324 1327 1332 1341 1349 1350 1355 1359 1366 1367 1362 1360 1360 1363 1365 1370 1376 1381 1386 1391 1394 1397 1399 1403 1405 1406 1407 1409 1411 1413 1416 1417 1419 1422 1425 1426 1427 1428 1430 1433 1438 1441 1444 1446 1448 1450 1452
1313 1311 1311 1310 1309 1313 1325 1332 1339 1344 1345 1345 1349 1358 1359 1361 1362 1360 1361 1362 1363 1366 1370 1376 1382 1387 1392 1394 1397 1400 1401 1402 1402 1404 1406 1408 1410 1412 1414 1416 1419 1422 1423 1423 1424 1425 1428 1432 1435 1438 1441 1442 1443 1445
1319 1318 1315 1318 1320 1326 1333 1337 1340 1341 1343 1344 1350 1356 1356 1358 1359 1360 1362 1364 1366 1368 1371 1375 1380 1385 1388 1391 1394 1396 1398 1398 1400 1400 1402 1406 1409 1411 1413 1414 1416 1418 1419 1420 1420 1422 1424 1427 1430 1431 1433 1435 1436 1437
1325 1325 1327 1332 1337 1342 1342 1341 1341 1343 1345 1347 1349 1351 1355 1357 1360 1362 1364 1366 1368 1370 1373 1377 1380 1383 1385 1388 1391 1393 1395 1395 1397 1399 1402 1405 1407 1410 1409 1410 1411 1413 1414 1415 1416 1417 1419 1421 1424 1425 1426 1427 1429 1429
1329 1328 1331 1336 1342 1344 1344 1345 1346 1348 1349 1350 1350 1351 1354 1357 1362 1365 1367 1370 1372 1374 1377 1380 1383 1385 1387 1389 1390 1391 1392 1393 1395 1397 1400 1402 1403 1403 1403 1404 1406 1407 1408 1408 1410 1411 1412 1413 1416 1419 1419 1419 1421 1422
1337 1339 1340 1347 1349 1350 1348 1349 1350 1350 1351 1351 1354 1356 1360 1363 1366 1369 1372 1374 1378 1380 1382 1384 1386 1386 1387 1388 1389 1390 1391 1392 1392 1393 1395 1398 1399 1399 1398 1398 1399 1401 1401 1401 1402 1404 1405 1405 1407 1411 1411 1412 1413 1414
1345 1345 1347 1350 1353 1356 1357 1355 1355 1356 1357 1359 1363 1365 1367 1370 1371 1374 1376 1378 1379 1379 1381 1382 1383 1384 1384 1385 1386 1386 1387 1388 1389 1389 1390 1391 1390 1390 1391 1391 1392 1392 1394 1394 1396 1397 1397 1397 1399 1401 1402 1404 1406 1406